| time (UTC) | temp F | wind direction | speed knots | gust knots | rain 1hr in | rain 24hr in | rain mn in | humidity % | barometer mb |
| 20260505235035 | 75 | 0 | 0.9 | 5.2 | 0.00 | 0.00 | 0.00 | 52 | 1013.1 |
| 20260505234604 | 76 | 264 | 0.0 | 7.8 | 0.00 | 0.00 | 0.00 | 52 | 1013.0 |
| 20260505234035 | 76 | 265 | 1.7 | 7.8 | 0.00 | 0.00 | 0.00 | 51 | 1013.0 |
| 20260505233535 | 76 | 0 | 0.0 | 10.4 | 0.00 | 0.00 | 0.00 | 52 | 1013.0 |
| 20260505233049 | 76 | 0 | 0.0 | 10.4 | 0.00 | 0.00 | 0.00 | 52 | 1013.0 |
| 20260505232538 | 76 | 261 | 4.3 | 10.4 | 0.00 | 0.00 | 0.00 | 50 | 1012.9 |
| 20260505232035 | 76 | 273 | 0.9 | 7.0 | 0.00 | 0.00 | 0.00 | 51 | 1012.9 |
| 20260505231545 | 77 | 257 | 0.9 | 8.7 | 0.00 | 0.00 | 0.00 | 52 | 1012.8 |
| 20260505231038 | 77 | 0 | 0.9 | 8.7 | 0.00 | 0.00 | 0.00 | 52 | 1012.7 |
| 20260505230534 | 77 | 260 | 1.7 | 7.0 | 0.00 | 0.00 | 0.00 | 52 | 1012.9 |
| 20260505230046 | 77 | 284 | 0.9 | 3.5 | 0.00 | 0.00 | 0.00 | 52 | 1012.9 |
| 20260505225537 | 77 | 0 | 0.0 | 6.1 | 0.00 | 0.00 | 0.00 | 53 | 1012.8 |
| 20260505225035 | 77 | 0 | 0.9 | 7.8 | 0.00 | 0.00 | 0.00 | 51 | 1012.9 |
| 20260505224543 | 77 | 269 | 0.9 | 7.8 | 0.00 | 0.00 | 0.00 | 50 | 1013.0 |
| 20260505224034 | 78 | 273 | 0.0 | 6.1 | 0.00 | 0.00 | 0.00 | 50 | 1013.0 |
| 20260505223534 | 78 | 38 | 0.9 | 9.6 | 0.00 | 0.00 | 0.00 | 50 | 1012.9 |
| 20260505223051 | 78 | 0 | 0.0 | 9.6 | 0.00 | 0.00 | 0.00 | 50 | 1013.0 |
| 20260505222534 | 78 | 0 | 1.7 | 9.6 | 0.00 | 0.00 | 0.00 | 50 | 1013.0 |
| 20260505222034 | 78 | 273 | 0.0 | 8.7 | 0.00 | 0.00 | 0.00 | 49 | 1013.2 |
| 20260505221549 | 78 | 265 | 1.7 | 7.0 | 0.00 | 0.00 | 0.00 | 48 | 1013.2 |
| 20260505221035 | 78 | 0 | 1.7 | 9.6 | 0.00 | 0.00 | 0.00 | 48 | 1013.2 |
| 20260505220535 | 79 | 0 | 1.7 | 9.6 | 0.00 | 0.00 | 0.00 | 47 | 1013.1 |
| 20260505220048 | 79 | 0 | 2.6 | 7.8 | 0.00 | 0.00 | 0.00 | 47 | 1013.0 |
| 20260505215534 | 79 | 0 | 1.7 | 8.7 | 0.00 | 0.00 | 0.00 | 49 | 1013.1 |
| 20260505215035 | 79 | 266 | 1.7 | 8.7 | 0.00 | 0.00 | 0.00 | 46 | 1013.1 |
| 20260505214554 | 80 | 0 | 1.7 | 7.8 | 0.00 | 0.00 | 0.00 | 47 | 1013.1 |
| 20260505214035 | 80 | 279 | 2.6 | 7.8 | 0.00 | 0.00 | 0.00 | 46 | 1013.1 |
| 20260505213536 | 80 | 0 | 0.0 | 7.0 | 0.00 | 0.00 | 0.00 | 47 | 1013.2 |
| 20260505213045 | 80 | 0 | 0.9 | 9.6 | 0.00 | 0.00 | 0.00 | 46 | 1013.1 |
| 20260505212535 | 80 | 269 | 1.7 | 9.6 | 0.00 | 0.00 | 0.00 | 46 | 1013.0 |
| 20260505212038 | 81 | 262 | 3.5 | 7.8 | 0.00 | 0.00 | 0.00 | 46 | 1013.1 |
| 20260505211555 | 81 | 247 | 2.6 | 7.0 | 0.00 | 0.00 | 0.00 | 44 | 1013.0 |
| 20260505211034 | 81 | 0 | 0.0 | 7.0 | 0.00 | 0.00 | 0.00 | 44 | 1013.1 |
| 20260505210534 | 81 | 255 | 1.7 | 8.7 | 0.00 | 0.00 | 0.00 | 45 | 1013.2 |
| 20260505210046 | 81 | 250 | 1.7 | 8.7 | 0.00 | 0.00 | 0.00 | 45 | 1013.2 |
| 20260505205535 | 81 | 0 | 0.0 | 7.8 | 0.00 | 0.00 | 0.00 | 44 | 1013.2 |
| 20260505205034 | 81 | 0 | 0.9 | 7.8 | 0.00 | 0.00 | 0.00 | 45 | 1013.4 |
| 20260505204549 | 81 | 267 | 1.7 | 13.9 | 0.00 | 0.00 | 0.00 | 44 | 1013.4 |
| 20260505204034 | 80 | 267 | 3.5 | 13.9 | 0.00 | 0.00 | 0.00 | 43 | 1013.3 |
| 20260505203534 | 81 | 338 | 2.6 | 12.2 | 0.00 | 0.00 | 0.00 | 44 | 1013.4 |
| 20260505203105 | 81 | 266 | 2.6 | 10.4 | 0.00 | 0.00 | 0.00 | 42 | 1013.4 |
| 20260505202535 | 82 | 254 | 5.2 | 10.4 | 0.00 | 0.00 | 0.00 | 40 | 1013.4 |
| 20260505202035 | 83 | 269 | 1.7 | 8.7 | 0.00 | 0.00 | 0.00 | 41 | 1013.3 |
| 20260505201545 | 82 | 0 | 1.7 | 8.7 | 0.00 | 0.00 | 0.00 | 44 | 1013.3 |
| 20260505201034 | 82 | 265 | 1.7 | 8.7 | 0.00 | 0.00 | 0.00 | 43 | 1013.4 |
| 20260505200535 | 82 | 0 | 0.9 | 7.0 | 0.00 | 0.00 | 0.00 | 44 | 1013.4 |
| 20260505200054 | 81 | 0 | 0.0 | 10.4 | 0.00 | 0.00 | 0.00 | 46 | 1013.4 |
| 20260505195536 | 80 | 263 | 2.6 | 10.4 | 0.00 | 0.00 | 0.00 | 45 | 1013.5 |
| 20260505195034 | 81 | 265 | 3.5 | 10.4 | 0.00 | 0.00 | 0.00 | 44 | 1013.6 |
| 20260505194548 | 81 | 261 | 1.7 | 9.6 | 0.00 | 0.00 | 0.00 | 44 | 1013.7 |
| 20260505194034 | 81 | 281 | 2.6 | 9.6 | 0.00 | 0.00 | 0.00 | 41 | 1013.8 |
| 20260505193535 | 81 | 0 | 2.6 | 9.6 | 0.00 | 0.00 | 0.00 | 44 | 1013.9 |
| 20260505193047 | 80 | 286 | 1.7 | 9.6 | 0.00 | 0.00 | 0.00 | 46 | 1014.0 |
| 20260505192538 | 80 | 267 | 2.6 | 13.9 | 0.00 | 0.00 | 0.00 | 46 | 1014.1 |
| 20260505192034 | 79 | 277 | 3.5 | 13.9 | 0.00 | 0.00 | 0.00 | 44 | 1014.2 |
| 20260505191555 | 79 | 267 | 2.6 | 8.7 | 0.00 | 0.00 | 0.00 | 46 | 1014.2 |
| 20260505191033 | 80 | 273 | 2.6 | 8.7 | 0.00 | 0.00 | 0.00 | 45 | 1014.2 |
| 20260505190534 | 80 | 269 | 2.6 | 8.7 | 0.00 | 0.00 | 0.00 | 45 | 1014.4 |
| 20260505190045 | 80 | 251 | 3.5 | 7.8 | 0.00 | 0.00 | 0.00 | 46 | 1014.5 |
| 20260505185537 | 80 | 0 | 0.0 | 10.4 | 0.00 | 0.00 | 0.00 | 46 | 1014.5 |
| 20260505185035 | 80 | 262 | 4.3 | 10.4 | 0.00 | 0.00 | 0.00 | 44 | 1014.5 |
| 20260505184549 | 80 | 254 | 2.6 | 9.6 | 0.00 | 0.00 | 0.00 | 44 | 1014.4 |
| 20260505184035 | 80 | 268 | 2.6 | 8.7 | 0.00 | 0.00 | 0.00 | 46 | 1014.7 |
| 20260505183535 | 80 | 274 | 0.0 | 9.6 | 0.00 | 0.00 | 0.00 | 45 | 1014.7 |
| 20260505183045 | 80 | 249 | 3.5 | 9.6 | 0.00 | 0.00 | 0.00 | 45 | 1014.8 |
| 20260505182538 | 80 | 218 | 1.7 | 7.8 | 0.00 | 0.00 | 0.00 | 46 | 1015.0 |
| 20260505182034 | 79 | 268 | 0.9 | 6.1 | 0.00 | 0.00 | 0.00 | 47 | 1015.2 |
| 20260505181548 | 79 | 0 | 1.7 | 8.7 | 0.00 | 0.00 | 0.00 | 47 | 1015.1 |
| 20260505181039 | 79 | 263 | 0.9 | 12.2 | 0.00 | 0.00 | 0.00 | 47 | 1015.1 |
| 20260505180539 | 79 | 250 | 2.6 | 12.2 | 0.00 | 0.00 | 0.00 | 46 | 1015.2 |
| 20260505180048 | 79 | 272 | 3.5 | 8.7 | 0.00 | 0.00 | 0.00 | 44 | 1015.2 |
| 20260505175537 | 79 | 258 | 2.6 | 8.7 | 0.00 | 0.00 | 0.00 | 48 | 1015.2 |
| 20260505175035 | 79 | 263 | 0.0 | 7.0 | 0.00 | 0.00 | 0.00 | 48 | 1015.2 |
| 20260505174543 | 79 | 249 | 1.7 | 7.8 | 0.00 | 0.00 | 0.00 | 47 | 1015.3 |
| 20260505174034 | 79 | 267 | 2.6 | 8.7 | 0.00 | 0.00 | 0.00 | 49 | 1015.3 |
| 20260505173534 | 79 | 262 | 3.5 | 8.7 | 0.00 | 0.00 | 0.00 | 47 | 1015.3 |
| 20260505173050 | 79 | 252 | 0.0 | 7.8 | 0.00 | 0.00 | 0.00 | 48 | 1015.3 |
| 20260505172533 | 78 | 0 | 0.0 | 6.1 | 0.00 | 0.00 | 0.00 | 49 | 1015.3 |
| 20260505172034 | 78 | 268 | 1.7 | 6.1 | 0.00 | 0.00 | 0.00 | 48 | 1015.3 |
| 20260505171546 | 78 | 265 | 0.9 | 8.7 | 0.00 | 0.00 | 0.00 | 48 | 1015.4 |
| 20260505171035 | 77 | 272 | 0.9 | 8.7 | 0.00 | 0.00 | 0.00 | 48 | 1015.4 |
| 20260505170534 | 78 | 252 | 3.5 | 8.7 | 0.00 | 0.00 | 0.00 | 46 | 1015.5 |
| 20260505170048 | 77 | 269 | 1.7 | 8.7 | 0.00 | 0.00 | 0.00 | 48 | 1015.5 |
| 20260505165534 | 77 | 260 | 2.6 | 11.3 | 0.00 | 0.00 | 0.00 | 50 | 1015.5 |
| 20260505165034 | 76 | 254 | 4.3 | 11.3 | 0.00 | 0.00 | 0.00 | 46 | 1015.5 |
| 20260505164547 | 76 | 271 | 0.9 | 7.8 | 0.00 | 0.00 | 0.00 | 52 | 1015.7 |
| 20260505164035 | 76 | 0 | 0.9 | 8.7 | 0.00 | 0.00 | 0.00 | 53 | 1015.6 |
| 20260505163534 | 76 | 265 | 1.7 | 8.7 | 0.00 | 0.00 | 0.00 | 53 | 1015.8 |
| 20260505163045 | 75 | 0 | 1.7 | 7.0 | 0.00 | 0.00 | 0.00 | 54 | 1015.7 |
| 20260505162536 | 75 | 264 | 1.7 | 7.8 | 0.00 | 0.00 | 0.00 | 56 | 1015.7 |
| 20260505162034 | 75 | 0 | 1.7 | 7.8 | 0.00 | 0.00 | 0.00 | 54 | 1015.8 |
| 20260505161545 | 75 | 0 | 2.6 | 8.7 | 0.00 | 0.00 | 0.00 | 57 | 1015.8 |
| 20260505161036 | 74 | 0 | 1.7 | 8.7 | 0.00 | 0.00 | 0.00 | 59 | 1015.8 |
| 20260505160535 | 74 | 267 | 0.0 | 6.1 | 0.00 | 0.00 | 0.00 | 60 | 1015.9 |
| 20260505153049 | 72 | 258 | 0.9 | 7.0 | 0.00 | 0.00 | 0.00 | 61 | 1016.2 |
| 20260505152533 | 72 | 0 | 0.9 | 8.7 | 0.00 | 0.00 | 0.00 | 62 | 1016.2 |
| 20260505152035 | 72 | 263 | 2.6 | 10.4 | 0.00 | 0.00 | 0.00 | 61 | 1016.2 |
| 20260505151550 | 71 | 273 | 2.6 | 10.4 | 0.00 | 0.00 | 0.00 | 61 | 1016.2 |
| 20260505151034 | 71 | 265 | 1.7 | 7.8 | 0.00 | 0.00 | 0.00 | 62 | 1016.3 |
| 20260505150534 | 71 | 0 | 1.7 | 7.8 | 0.00 | 0.00 | 0.00 | 64 | 1016.2 |
| 20260505140534 | 67 | 262 | 1.7 | 11.3 | 0.00 | 0.00 | 0.00 | 69 | 1016.1 |
| 20260505125036 | 63 | 259 | 2.6 | 7.8 | 0.00 | 0.00 | 0.00 | 75 | 1016.2 |
| 20260505124551 | 62 | 267 | 1.7 | 7.0 | 0.00 | 0.00 | 0.00 | 77 | 1016.3 |
| 20260505124035 | 62 | 255 | 2.6 | 7.0 | 0.00 | 0.00 | 0.00 | 77 | 1016.3 |
| 20260505123536 | 61 | 271 | 1.7 | 7.0 | 0.00 | 0.00 | 0.00 | 79 | 1016.4 |
| 20260505123046 | 60 | 273 | 0.9 | 7.0 | 0.00 | 0.00 | 0.00 | 80 | 1016.3 |
| 20260505122535 | 59 | 262 | 0.9 | 6.1 | 0.00 | 0.00 | 0.00 | 81 | 1016.4 |
| 20260505122036 | 58 | 260 | 1.7 | 5.2 | 0.00 | 0.00 | 0.00 | 83 | 1016.3 |
| 20260505121549 | 58 | 271 | 0.0 | 5.2 | 0.00 | 0.00 | 0.00 | 84 | 1016.4 |
| 20260505121036 | 56 | 261 | 1.7 | 5.2 | 0.00 | 0.00 | 0.00 | 86 | 1016.3 |
| 20260505120536 | 55 | 0 | 1.7 | 5.2 | 0.00 | 0.00 | 0.00 | 90 | 1016.2 |
| 20260505115535 | 53 | 260 | 0.0 | 0.0 | 0.00 | 0.00 | 0.00 | 92 | 1016.2 |
| 20260505115035 | 52 | 0 | 0.0 | 0.0 | 0.00 | 0.00 | 0.00 | 92 | 1016.1 |
| 20260505114551 | 52 | 0 | 0.0 | 0.0 | 0.00 | 0.00 | 0.00 | 92 | 1016.1 |
| 20260505114036 | 52 | 0 | 0.0 | 0.0 | 0.00 | 0.00 | 0.00 | 92 | 1016.1 |
| 20260505113535 | 51 | 0 | 0.0 | 0.0 | 0.00 | 0.00 | 0.00 | 92 | 1016.2 |
| 20260505113054 | 51 | 0 | 0.0 | 0.0 | 0.00 | 0.00 | 0.00 | 92 | 1016.2 |
| 20260505112535 | 50 | 0 | 0.0 | 0.0 | 0.00 | 0.00 | 0.00 | 92 | 1016.1 |
| 20260505112035 | 50 | 0 | 0.0 | 0.0 | 0.00 | 0.00 | 0.00 | 91 | 1016.0 |
| 20260505111548 | 50 | 0 | 0.0 | 0.0 | 0.00 | 0.00 | 0.00 | 91 | 1016.0 |
| 20260505111038 | 50 | 0 | 0.0 | 0.0 | 0.00 | 0.00 | 0.00 | 91 | 1015.8 |
| 20260505110535 | 50 | 0 | 0.0 | 0.0 | 0.00 | 0.00 | 0.00 | 91 | 1015.8 |
| 20260505102035 | 50 | 0 | 0.0 | 0.0 | 0.00 | 0.00 | 0.00 | 89 | 1015.4 |
| 20260505101554 | 50 | 0 | 0.0 | 0.0 | 0.00 | 0.00 | 0.00 | 89 | 1015.4 |
| 20260505101035 | 50 | 0 | 0.0 | 0.0 | 0.00 | 0.00 | 0.00 | 89 | 1015.4 |
| 20260505100536 | 50 | 0 | 0.0 | 0.0 | 0.00 | 0.00 | 0.00 | 89 | 1015.4 |
| 20260505100046 | 50 | 0 | 0.0 | 0.0 | 0.00 | 0.00 | 0.00 | 89 | 1015.3 |
| 20260505095537 | 50 | 0 | 0.0 | 0.0 | 0.00 | 0.00 | 0.00 | 88 | 1015.4 |
| 20260505095035 | 51 | 0 | 0.0 | 0.0 | 0.00 | 0.00 | 0.00 | 88 | 1015.3 |
| 20260505094552 | 51 | 0 | 0.0 | 0.0 | 0.00 | 0.00 | 0.00 | 89 | 1015.3 |
| 20260505094035 | 51 | 0 | 0.0 | 0.0 | 0.00 | 0.00 | 0.00 | 89 | 1015.4 |
| 20260505093535 | 51 | 0 | 0.0 | 0.0 | 0.00 | 0.00 | 0.00 | 88 | 1015.2 |
| 20260505093053 | 51 | 0 | 0.0 | 0.0 | 0.00 | 0.00 | 0.00 | 88 | 1015.1 |
| 20260505092535 | 51 | 0 | 0.0 | 0.0 | 0.00 | 0.00 | 0.00 | 88 | 1015.2 |
| 20260505092038 | 51 | 0 | 0.0 | 0.0 | 0.00 | 0.00 | 0.00 | 87 | 1015.1 |
| 20260505091545 | 52 | 0 | 0.0 | 0.0 | 0.00 | 0.00 | 0.00 | 87 | 1015.1 |
| 20260505091034 | 52 | 0 | 0.0 | 0.0 | 0.00 | 0.00 | 0.00 | 87 | 1015.1 |
| 20260505090535 | 52 | 0 | 0.0 | 0.0 | 0.00 | 0.00 | 0.00 | 87 | 1015.1 |
| 20260505090048 | 52 | 0 | 0.0 | 0.0 | 0.00 | 0.00 | 0.00 | 86 | 1015.0 |
| 20260505085540 | 52 | 0 | 0.0 | 0.0 | 0.00 | 0.00 | 0.00 | 86 | 1015.1 |
| 20260505085038 | 53 | 0 | 0.0 | 0.0 | 0.00 | 0.00 | 0.00 | 85 | 1015.0 |
| 20260505084547 | 53 | 0 | 0.0 | 0.0 | 0.00 | 0.00 | 0.00 | 85 | 1015.0 |
| 20260505084034 | 53 | 0 | 0.0 | 0.0 | 0.00 | 0.00 | 0.00 | 85 | 1014.9 |
| 20260505083538 | 53 | 0 | 0.0 | 0.0 | 0.00 | 0.00 | 0.00 | 85 | 1014.9 |
| 20260505083101 | 53 | 0 | 0.0 | 0.0 | 0.00 | 0.00 | 0.00 | 84 | 1014.8 |
| 20260505082536 | 54 | 0 | 0.0 | 0.0 | 0.00 | 0.00 | 0.00 | 84 | 1014.8 |
| 20260505082035 | 54 | 0 | 0.0 | 0.0 | 0.00 | 0.00 | 0.00 | 83 | 1014.9 |
| 20260505081545 | 54 | 0 | 0.0 | 0.0 | 0.00 | 0.00 | 0.00 | 83 | 1014.7 |
| 20260505081035 | 54 | 0 | 0.0 | 0.0 | 0.00 | 0.00 | 0.00 | 82 | 1014.8 |
| 20260505080536 | 55 | 0 | 0.0 | 0.0 | 0.00 | 0.00 | 0.00 | 82 | 1014.8 |
| 20260505080045 | 55 | 0 | 0.0 | 0.0 | 0.00 | 0.00 | 0.00 | 81 | 1014.7 |
| 20260505075535 | 55 | 0 | 0.0 | 0.0 | 0.00 | 0.00 | 0.00 | 81 | 1014.7 |
| 20260505075035 | 56 | 0 | 0.0 | 0.0 | 0.00 | 0.00 | 0.00 | 80 | 1014.7 |
| 20260505074544 | 56 | 0 | 0.0 | 0.0 | 0.00 | 0.00 | 0.00 | 80 | 1014.7 |
| 20260505074036 | 56 | 0 | 0.0 | 0.0 | 0.00 | 0.00 | 0.00 | 79 | 1014.6 |
| 20260505073535 | 57 | 0 | 0.0 | 0.0 | 0.00 | 0.00 | 0.00 | 78 | 1014.6 |
| 20260505073042 | 57 | 0 | 0.0 | 0.0 | 0.00 | 0.00 | 0.00 | 78 | 1014.6 |
| 20260505072535 | 57 | 0 | 0.0 | 0.0 | 0.00 | 0.00 | 0.00 | 76 | 1014.6 |
| 20260505072035 | 58 | 0 | 0.0 | 0.0 | 0.00 | 0.00 | 0.00 | 76 | 1014.6 |
| 20260505071545 | 58 | 0 | 0.0 | 0.0 | 0.00 | 0.00 | 0.00 | 75 | 1014.6 |
| 20260505071035 | 58 | 0 | 0.0 | 0.0 | 0.00 | 0.00 | 0.00 | 76 | 1014.6 |
| 20260505070535 | 58 | 0 | 0.0 | 0.0 | 0.00 | 0.00 | 0.00 | 75 | 1014.5 |
| 20260505070059 | 58 | 0 | 0.0 | 0.0 | 0.00 | 0.00 | 0.00 | 74 | 1014.6 |
| 20260505065536 | 59 | 0 | 0.0 | 0.0 | 0.00 | 0.00 | 0.00 | 74 | 1014.5 |
| 20260505065034 | 59 | 0 | 0.0 | 0.0 | 0.00 | 0.00 | 0.00 | 74 | 1014.5 |
| 20260505064548 | 59 | 0 | 0.0 | 0.0 | 0.00 | 0.00 | 0.00 | 73 | 1014.6 |
| 20260505064034 | 59 | 0 | 0.0 | 0.0 | 0.00 | 0.00 | 0.00 | 73 | 1014.6 |
| 20260505063534 | 60 | 0 | 0.0 | 0.0 | 0.00 | 0.00 | 0.00 | 73 | 1014.6 |
| 20260505063048 | 60 | 0 | 0.0 | 0.0 | 0.00 | 0.00 | 0.00 | 73 | 1014.6 |
| 20260505062536 | 60 | 0 | 0.0 | 0.9 | 0.00 | 0.00 | 0.00 | 72 | 1014.6 |
| 20260505062037 | 61 | 0 | 0.0 | 0.9 | 0.00 | 0.00 | 0.00 | 71 | 1014.6 |
| 20260505061608 | 61 | 0 | 0.0 | 2.6 | 0.00 | 0.00 | 0.00 | 70 | 1014.5 |
| 20260505061035 | 61 | 0 | 0.0 | 2.6 | 0.00 | 0.00 | 0.00 | 71 | 1014.6 |
| 20260505060536 | 61 | 260 | 0.0 | 2.6 | 0.00 | 0.00 | 0.00 | 70 | 1014.5 |
| 20260505060050 | 61 | 0 | 0.0 | 2.6 | 0.00 | 0.00 | 0.00 | 70 | 1014.6 |
| 20260505055535 | 62 | 260 | 0.0 | 3.5 | 0.00 | 0.00 | 0.00 | 69 | 1014.7 |
| 20260505055037 | 62 | 0 | 0.9 | 3.5 | 0.00 | 0.00 | 0.00 | 69 | 1014.7 |
| 20260505054554 | 62 | 0 | 0.0 | 2.6 | 0.00 | 0.00 | 0.00 | 69 | 1014.6 |
| 20260505054034 | 62 | 0 | 0.0 | 2.6 | 0.00 | 0.00 | 0.00 | 69 | 1014.7 |
| 20260505053534 | 62 | 0 | 0.0 | 2.6 | 0.00 | 0.00 | 0.00 | 69 | 1014.7 |
| 20260505053047 | 62 | 0 | 0.0 | 2.6 | 0.00 | 0.00 | 0.00 | 69 | 1014.7 |
| 20260505052535 | 62 | 0 | 0.0 | 1.7 | 0.00 | 0.00 | 0.00 | 68 | 1014.8 |
| 20260505052035 | 63 | 0 | 0.0 | 2.6 | 0.00 | 0.00 | 0.00 | 68 | 1014.8 |
| 20260505051545 | 63 | 0 | 0.0 | 6.1 | 0.00 | 0.00 | 0.00 | 68 | 1014.7 |
| 20260505051035 | 63 | 0 | 0.9 | 6.1 | 0.00 | 0.00 | 0.00 | 68 | 1014.9 |
| 20260505050535 | 63 | 0 | 0.0 | 3.5 | 0.00 | 0.00 | 0.00 | 68 | 1014.9 |
| 20260505041550 | 64 | 263 | 0.9 | 5.2 | 0.00 | 0.00 | 0.00 | 65 | 1014.8 |
| 20260505041039 | 65 | 0 | 0.0 | 6.1 | 0.00 | 0.00 | 0.00 | 65 | 1014.6 |
| 20260505040535 | 65 | 0 | 0.9 | 7.0 | 0.00 | 0.00 | 0.00 | 65 | 1014.7 |
| 20260505040057 | 65 | 0 | 0.9 | 7.0 | 0.00 | 0.00 | 0.00 | 65 | 1014.7 |
| 20260505035534 | 65 | 269 | 0.0 | 6.1 | 0.00 | 0.00 | 0.00 | 65 | 1014.8 |
| 20260505035037 | 65 | 0 | 0.9 | 6.1 | 0.00 | 0.00 | 0.00 | 64 | 1014.7 |
| 20260505034547 | 66 | 0 | 0.9 | 6.1 | 0.00 | 0.00 | 0.00 | 64 | 1014.7 |
| 20260505034034 | 66 | 271 | 0.0 | 6.1 | 0.00 | 0.00 | 0.00 | 64 | 1014.7 |
| 20260505033535 | 66 | 264 | 0.9 | 7.8 | 0.00 | 0.00 | 0.00 | 64 | 1014.6 |
| 20260505033054 | 66 | 270 | 0.0 | 7.8 | 0.00 | 0.00 | 0.00 | 63 | 1014.7 |
| 20260505032535 | 66 | 0 | 1.7 | 3.5 | 0.00 | 0.00 | 0.00 | 63 | 1014.6 |
| 20260505032036 | 66 | 267 | 0.0 | 8.7 | 0.00 | 0.00 | 0.00 | 63 | 1014.7 |
| 20260505031551 | 67 | 268 | 0.0 | 9.6 | 0.00 | 0.00 | 0.00 | 63 | 1014.6 |
| 20260505031035 | 67 | 261 | 1.7 | 9.6 | 0.00 | 0.00 | 0.00 | 62 | 1014.6 |
| 20260505030535 | 67 | 269 | 1.7 | 6.1 | 0.00 | 0.00 | 0.00 | 63 | 1014.6 |
| 20260505030045 | 67 | 263 | 0.9 | 7.0 | 0.00 | 0.00 | 0.00 | 62 | 1014.6 |
| 20260505025535 | 67 | 281 | 1.7 | 8.7 | 0.00 | 0.00 | 0.00 | 62 | 1014.7 |
| 20260505025038 | 67 | 0 | 2.6 | 8.7 | 0.00 | 0.00 | 0.00 | 62 | 1014.7 |
| 20260505024542 | 67 | 0 | 1.7 | 7.0 | 0.00 | 0.00 | 0.00 | 61 | 1014.5 |
| 20260505024034 | 68 | 0 | 1.7 | 8.7 | 0.00 | 0.00 | 0.00 | 61 | 1014.5 |
| 20260505023534 | 68 | 271 | 2.6 | 8.7 | 0.00 | 0.00 | 0.00 | 61 | 1014.5 |
| 20260505023044 | 68 | 289 | 2.6 | 8.7 | 0.00 | 0.00 | 0.00 | 61 | 1014.4 |
| 20260505022534 | 68 | 0 | 0.0 | 7.0 | 0.00 | 0.00 | 0.00 | 61 | 1014.5 |
| 20260505022035 | 68 | 261 | 1.7 | 7.0 | 0.00 | 0.00 | 0.00 | 59 | 1014.4 |
| 20260505021542 | 68 | 265 | 1.7 | 7.0 | 0.00 | 0.00 | 0.00 | 59 | 1014.4 |
| 20260505021034 | 68 | 263 | 0.9 | 7.8 | 0.00 | 0.00 | 0.00 | 58 | 1014.3 |
| 20260505020535 | 68 | 271 | 1.7 | 7.8 | 0.00 | 0.00 | 0.00 | 57 | 1014.3 |
| 20260505020043 | 68 | 265 | 2.6 | 7.0 | 0.00 | 0.00 | 0.00 | 56 | 1014.3 |
| 20260505015535 | 67 | 286 | 0.9 | 5.2 | 0.00 | 0.00 | 0.00 | 54 | 1014.2 |
| 20260505015035 | 67 | 0 | 0.0 | 3.5 | 0.00 | 0.00 | 0.00 | 54 | 1014.2 |
| 20260505014545 | 67 | 0 | 0.0 | 3.5 | 0.00 | 0.00 | 0.00 | 52 | 1014.3 |
| 20260505014035 | 67 | 0 | 0.0 | 2.6 | 0.00 | 0.00 | 0.00 | 53 | 1014.1 |
| 20260505013535 | 67 | 265 | 0.9 | 2.6 | 0.00 | 0.00 | 0.00 | 53 | 1014.0 |
| 20260505013044 | 67 | 0 | 0.0 | 1.7 | 0.00 | 0.00 | 0.00 | 53 | 1014.0 |
| 20260505012535 | 67 | 0 | 0.0 | 2.6 | 0.00 | 0.00 | 0.00 | 52 | 1013.9 |
| 20260505012037 | 67 | 0 | 0.0 | 2.6 | 0.00 | 0.00 | 0.00 | 54 | 1013.9 |
| 20260505011545 | 67 | 273 | 0.0 | 1.7 | 0.00 | 0.00 | 0.00 | 53 | 1013.8 |
| 20260505011034 | 67 | 273 | 0.0 | 0.0 | 0.00 | 0.00 | 0.00 | 52 | 1013.8 |
| 20260505010535 | 68 | 0 | 0.0 | 1.7 | 0.00 | 0.00 | 0.00 | 52 | 1013.7 |
| 20260505010057 | 68 | 0 | 0.0 | 1.7 | 0.00 | 0.00 | 0.00 | 53 | 1013.6 |
| 20260505005535 | 68 | 0 | 0.0 | 0.0 | 0.00 | 0.00 | 0.00 | 51 | 1013.6 |
| 20260505005035 | 68 | 0 | 0.0 | 0.0 | 0.00 | 0.00 | 0.00 | 50 | 1013.5 |
| 20260505004543 | 69 | 0 | 0.0 | 0.0 | 0.00 | 0.00 | 0.00 | 50 | 1013.4 |
| 20260505004035 | 69 | 0 | 0.0 | 0.0 | 0.00 | 0.00 | 0.00 | 50 | 1013.4 |
| 20260505003534 | 70 | 0 | 0.0 | 0.0 | 0.00 | 0.00 | 0.00 | 49 | 1013.4 |
| 20260505003041 | 70 | 0 | 0.0 | 0.0 | 0.00 | 0.00 | 0.00 | 47 | 1013.2 |
| 20260505002534 | 71 | 0 | 0.0 | 0.0 | 0.00 | 0.00 | 0.00 | 46 | 1013.2 |
| 20260505002034 | 72 | 0 | 0.0 | 0.0 | 0.00 | 0.00 | 0.00 | 45 | 1013.2 |
| 20260505001547 | 72 | 0 | 0.0 | 0.9 | 0.00 | 0.00 | 0.00 | 44 | 1013.2 |
| 20260505001034 | 73 | 0 | 0.0 | 0.9 | 0.00 | 0.00 | 0.00 | 44 | 1013.2 |
| 20260505000535 | 73 | 0 | 0.0 | 3.5 | 0.00 | 0.00 | 0.00 | 42 | 1013.0 |
| 20260505000055 | 74 | 0 | 0.0 | 5.2 | 0.00 | 0.00 | 0.00 | 42 | 1013.0 |
| 20260504235535 | 74 | 273 | 0.9 | 7.0 | 0.00 | 0.00 | 0.00 | 40 | 1013.1 |